Tracking 35331 objects as of 14-Sep-2026
HD Live streaming from Space Station
objects crossing your sky now

COSMOS 1813 DEB


COSMOS 1813 DEB is no longer on orbit


NORAD ID: 18078
Int'l Code: 1987-004GH
Launch date: January 15, 1987
Source: Commonwealth of Independent States (former USSR) (CIS)
Launch site: PLESETSK MISSILE AND SPACE COMPLEX (PKMTR)
Decay date: 1988-02-16

Note: This is SATELLITE DEBRIS
Your satellite tracking list
Your tracking list is empty




NASA's NSSDC Master Catalog

Two Line Element Set (TLE):
1 18078U 87004 GH 88046.08635808  .03504784 +89000-5 +61829-3 0  9999
2 18078 072.7790 048.3781 0009551 339.7980 024.2682 16.32449222054646
Source of the keplerian elements: AFSPC